This demonstration page uses our WeatherBlox Daily Observations layout. Learn more.

Left ArrowRight Arrow

Hourly Observations for January 29, 2017

Temp ( °F °C ) Dew Point ( °F °C ) Humidity (%) Winds ( mph kmh ) Pressure ( in mb ) Visibility ( mi km ) Precip ( " mm )
12:16 am 00:16 Cloudy 30 -1 25 -4 80 80 W 8 13 29.85 1011 10 16 N/A
12:36 am 00:36 Cloudy 30 -1 23 -5 75 75 W 9 15 29.85 1011 10 16 N/A
12:55 am 00:55 Cloudy 30 -1 23 -5 75 75 W 8 13 29.85 1011 10 16 N/A
1:16 am 01:16 Cloudy 30 -1 25 -4 80 80 NNW 9 15 29.85 1011 10 16 N/A
1:36 am 01:36 Cloudy 28 -2 25 -4 86 86 NNW 10 17 29.85 1011 10 16 N/A
1:55 am 01:55 Cloudy 28 -2 25 -4 86 86 NW 8 13 29.85 1011 10 16 N/A
2:16 am 02:16 Cloudy 28 -2 25 -4 86 86 NNW 9 15 29.85 1011 7 11 N/A
2:36 am 02:36 Cloudy 28 -2 25 -4 86 86 NNW 8 13 29.85 1011 7 11 N/A
2:56 am 02:56 Cloudy 28 -2 25 -4 86 86 NW 8 13 29.85 1011 7 11 N/A
3:16 am 03:16 Cloudy 28 -2 25 -4 86 86 NNW 5 7 29.85 1011 7 11 N/A
3:36 am 03:36 Cloudy 27 -3 25 -4 93 93 NW 5 7 29.85 1011 7 11 N/A
3:56 am 03:56 Cloudy 27 -3 25 -4 93 93 NW 8 13 29.85 1011 7 11 N/A
4:16 am 04:16 Cloudy 27 -3 23 -5 86 86 NW 7 11 29.85 1011 10 16 N/A
4:36 am 04:36 Cloudy 27 -3 23 -5 86 86 NW 6 9 29.85 1011 10 16 N/A
4:56 am 04:56 Cloudy 27 -3 23 -5 86 86 NW 7 11 29.85 1011 10 16 N/A
5:16 am 05:16 Cloudy 27 -3 23 -5 86 86 WNW 10 17 29.85 1011 10 16 N/A
5:36 am 05:36 Cloudy 27 -3 21 -6 80 80 NW 8 13 29.85 1011 10 16 N/A
5:56 am 05:56 Cloudy 27 -3 21 -6 80 80 NW 12 19 29.85 1011 10 16 N/A
6:16 am 06:16 Cloudy 27 -3 21 -6 80 80 WNW 9 15 29.85 1011 10 16 N/A
6:35 am 06:35 Cloudy 25 -4 19 -7 80 80 WNW 12 19 29.85 1011 10 16 N/A
6:56 am 06:56 Cloudy 25 -4 19 -7 80 80 NW 7 11 29.85 1011 10 16 N/A
7:16 am 07:16 Cloudy 25 -4 19 -7 80 80 NW 9 15 29.85 1011 10 16 N/A
7:36 am 07:36 Cloudy 25 -4 19 -7 80 80 NW 9 15 29.85 1011 10 16 N/A
7:56 am 07:56 Cloudy 25 -4 19 -7 80 80 NNW 6 9 29.85 1011 10 16 N/A
8:15 am 08:15 Cloudy 25 -4 19 -7 80 80 WNW 7 11 29.85 1011 10 16 N/A
8:36 am 08:36 Cloudy 25 -4 19 -7 80 80 W 9 15 29.88 1012 10 16 N/A
8:56 am 08:56 Cloudy 25 -4 18 -8 74 74 NNW 7 11 29.88 1012 10 16 N/A
9:15 am 09:15 Cloudy 25 -4 19 -7 80 80 NNW 5 7 29.88 1012 10 16 N/A
9:36 am 09:36 Cloudy 25 -4 19 -7 80 80 NW 6 9 29.88 1012 10 16 N/A
9:56 am 09:56 Cloudy 25 -4 19 -7 80 80 WNW 5 7 29.88 1012 10 16 N/A
10:16 am 10:16 Cloudy 25 -4 19 -7 80 80 WNW 6 9 29.88 1012 10 16 N/A
10:36 am 10:36 Cloudy 27 -3 19 -7 74 74 NW 8 13 29.88 1012 10 16 N/A
10:56 am 10:56 Cloudy 27 -3 19 -7 74 74 NNW 9 15 29.88 1012 10 16 N/A
11:16 am 11:16 Cloudy 27 -3 19 -7 74 74 NNW 6 9 29.88 1012 7 11 N/A
11:36 am 11:36 Cloudy 27 -3 19 -7 74 74 N 6 9 29.88 1012 4 6 N/A
11:56 am 11:56 Cloudy 27 -3 19 -7 74 74 NNW 5 7 29.88 1012 5 8 N/A
12:16 pm 12:16 Cloudy 27 -3 21 -6 80 80 NNW 6 9 29.88 1012 4 6 N/A
12:36 pm 12:36 Cloudy 27 -3 21 -6 80 80 NW 5 7 29.88 1012 3 5 N/A
12:56 pm 12:56 Cloudy 27 -3 21 -6 80 80 WNW 3 6 29.88 1012 4 6 N/A
1:16 pm 13:16 Cloudy 27 -3 21 -6 80 80 WNW 3 6 29.85 1011 7 11 N/A
1:35 pm 13:35 Cloudy 27 -3 21 -6 80 80 W 5 7 29.85 1011 3 5 N/A
1:56 pm 13:56 Cloudy 27 -3 21 -6 80 80 WNW 6 9 29.85 1011 3 4 N/A
2:16 pm 14:16 Cloudy 27 -3 23 -5 86 86 W 7 11 29.85 1011 2 3 N/A
2:35 pm 14:35 Cloudy 27 -3 23 -5 86 86 WNW 9 15 29.85 1011 2 3 N/A
2:56 pm 14:56 Cloudy 27 -3 23 -5 86 86 W 9 15 29.85 1011 2 3 N/A
3:15 pm 15:15 Cloudy 27 -3 23 -5 86 86 WNW 7 11 29.85 1011 1 2 N/A
3:36 pm 15:36 Cloudy 27 -3 23 -5 86 86 WNW 10 17 29.85 1011 4 6 N/A
3:56 pm 15:56 Cloudy 27 -3 23 -5 86 86 WNW 9 15 29.88 1012 7 11 N/A
4:15 pm 16:15 Cloudy 27 -3 23 -5 86 86 WNW 10 17 29.88 1012 5 8 N/A
4:36 pm 16:36 Cloudy 27 -3 23 -5 86 86 W 10 17 29.88 1012 2 3 N/A
4:55 pm 16:55 Cloudy 27 -3 23 -5 86 86 W 10 17 29.88 1012 2 3 N/A
5:16 pm 17:16 Cloudy 27 -3 23 -5 86 86 W 9 15 29.88 1012 10 16 N/A
5:36 pm 17:36 Cloudy 27 -3 21 -6 80 80 W 10 17 29.88 1012 10 16 N/A
5:55 pm 17:55 Cloudy 27 -3 19 -7 74 74 W 17 28 29.91 1013 10 16 N/A
6:16 pm 18:16 Cloudy 25 -4 19 -7 80 80 W 14 22 29.91 1013 10 16 N/A
6:36 pm 18:36 Cloudy 25 -4 19 -7 80 80 WNW 13 20 29.94 1014 10 16 N/A
6:55 pm 18:55 Cloudy 25 -4 19 -7 80 80 WNW 12 19 29.94 1014 10 16 N/A
7:16 pm 19:16 Cloudy 27 -3 19 -7 74 74 WNW 14 22 29.94 1014 10 16 N/A
7:36 pm 19:36 Cloudy 27 -3 19 -7 74 74 WNW 16 26 29.94 1014 10 16 N/A
7:55 pm 19:55 Cloudy 25 -4 19 -7 80 80 NW 10 17 29.94 1014 10 16 N/A
8:16 pm 20:16 Cloudy 25 -4 18 -8 74 74 WNW 17 28 29.94 1014 10 16 N/A
8:36 pm 20:36 Cloudy 25 -4 18 -8 74 74 NW 13 20 29.94 1014 10 16 N/A
8:55 pm 20:55 Cloudy 25 -4 18 -8 74 74 WNW 14 22 29.94 1014 10 16 N/A
9:16 pm 21:16 Cloudy 25 -4 18 -8 74 74 WNW 9 15 29.94 1014 10 16 N/A
9:36 pm 21:36 Cloudy 25 -4 19 -7 80 80 WNW 10 17 29.94 1014 5 8 N/A
9:55 pm 21:55 Cloudy 25 -4 19 -7 80 80 WNW 8 13 29.94 1014 7 11 N/A
10:16 pm 22:16 Cloudy 25 -4 19 -7 80 80 WNW 6 9 29.94 1014 7 11 N/A
10:36 pm 22:36 Cloudy 25 -4 19 -7 80 80 WNW 10 17 29.94 1014 10 16 N/A
10:55 pm 22:55 Cloudy 25 -4 19 -7 80 80 WNW 9 15 29.97 1015 10 16 N/A
11:16 pm 23:16 Cloudy 25 -4 19 -7 80 80 NW 10 17 29.97 1015 5 8 N/A
11:35 pm 23:35 Cloudy 25 -4 19 -7 80 80 WNW 12 19 29.97 1015 10 16 N/A
11:56 pm 23:56 Cloudy 25 -4 19 -7 80 80 NW 9 15 29.97 1015 10 16 N/A

Powered by AerisWeather